GFSSW_700_rhum_057.txt.gz
RH
5 5 4 4 4 2 1 10 45 81 82 96 75 30 28 30 25 24 24 30 25 17 14 15 21 26 29 25 23 26 60 48 39 30 21 24 37 36 36 34 33 32 38 38 43
6 6 6 6 5 4 2 1 6 58 75 92 96 58 32 32 30 23 29 43 38 25 17 16 18 26 31 28 30 33 53 47 26 33 27 35 34 40 39 37 37 35 36 39 39
7 6 7 7 7 6 4 2 2 14 52 96 100 94 42 32 32 25 32 38 43 35 23 28 42 32 29 32 36 42 44 29 22 25 46 53 44 45 45 41 39 35 39 41 41
11 9 8 7 8 7 6 4 2 4 23 68 100 98 84 34 34 33 30 44 51 42 33 72 76 71 41 39 40 45 46 49 31 26 61 61 50 43 48 47 44 39 39 46 46
12 11 9 9 9 8 7 6 4 1 12 53 98 99 90 50 29 36 65 60 59 45 75 76 72 84 96 33 37 65 46 56 50 41 59 63 61 45 50 49 43 38 41 45 50
12 11 12 16 31 13 9 10 7 3 3 35 97 100 92 72 33 37 43 64 74 67 84 86 87 88 72 77 78 78 78 74 81 66 59 62 63 49 35 52 44 31 44 52 67
11 13 34 44 82 95 72 41 10 4 2 21 97 100 98 79 41 36 52 72 72 88 90 90 96 95 91 82 95 93 82 81 65 54 64 51 53 58 28 33 45 46 35 47 55
23 36 60 91 85 88 87 64 38 10 3 14 97 100 99 76 60 35 56 73 64 81 90 93 97 97 93 89 76 80 83 83 60 48 45 50 46 29 23 25 23 21 21 21 41
97 78 70 74 74 74 70 63 49 48 14 53 99 99 98 84 77 33 57 70 67 70 81 94 100 100 100 86 80 77 84 72 52 43 49 56 53 36 29 35 38 32 29 23 20
97 93 70 76 74 73 74 75 68 86 51 98 99 100 99 67 85 42 63 73 72 70 88 88 99 100 100 100 96 77 80 68 63 52 60 58 56 48 35 37 30 31 19 20 20
94 87 69 76 81 87 86 82 81 80 61 42 98 98 96 86 91 45 68 78 68 84 81 92 99 97 98 98 94 71 74 73 62 62 65 61 62 48 29 33 29 27 23 21 20
82 82 70 78 84 90 85 90 96 97 52 81 98 100 86 75 61 50 82 87 86 82 92 100 100 98 97 95 93 90 73 65 55 56 61 51 47 46 26 23 19 19 20 19 20
77 72 75 83 85 96 86 92 96 77 76 75 98 97 98 84 57 60 94 93 97 88 75 96 97 99 96 96 88 84 81 68 71 52 51 55 39 18 14 12 13 12 13 13 12
70 71 73 68 77 86 89 95 92 73 69 61 92 92 98 98 76 84 96 94 100 100 92 92 93 93 94 79 81 85 82 74 75 71 60 53 70 22 21 19 14 14 15 14 15
84 84 52 50 54 73 81 87 95 57 89 88 74 96 98 97 75 100 99 100 100 98 95 86 83 78 82 88 93 90 85 85 80 74 78 47 59 24 16 14 21 21 23 22 19
47 41 39 45 52 68 70 82 96 79 92 95 98 98 99 92 85 95 100 98 94 94 93 92 91 89 89 88 94 95 86 84 77 82 91 39 46 31 34 29 28 25 24 23 29
27 29 34 39 57 71 80 81 93 95 91 98 98 96 91 99 91 99 98 99 91 98 98 96 94 86 88 89 97 96 82 92 92 95 85 58 64 37 36 32 32 30 29 26 28
32 51 48 39 55 78 100 99 91 82 64 97 98 98 98 95 97 100 99 99 88 84 85 89 97 85 90 92 72 89 85 92 95 99 84 62 61 35 33 31 30 28 31 34 36
73 79 70 70 76 79 100 100 82 98 83 97 98 94 98 93 96 99 100 97 78 73 76 82 88 94 86 92 86 91 96 89 96 83 85 57 47 35 30 33 36 36 35 34 36
82 77 71 74 99 98 99 88 96 93 97 98 96 97 97 91 88 91 96 86 73 74 83 85 94 99 90 94 97 88 83 92 96 88 94 68 55 38 34 39 44 42 38 39 45
81 79 86 100 100 100 99 98 86 93 97 98 96 98 91 92 81 92 77 84 63 81 90 94 74 100 92 94 90 92 96 92 92 83 93 95 56 38 38 36 42 47 51 54 49
62 81 92 92 99 97 92 78 78 95 98 98 94 79 87 80 88 81 80 90 83 70 93 82 84 79 94 79 90 88 84 91 87 73 84 83 69 35 37 47 52 52 55 60 63
63 76 82 80 89 92 80 94 91 95 99 98 98 76 72 80 84 90 83 84 84 83 90 81 86 81 92 92 90 97 88 83 83 80 86 90 56 40 43 49 58 72 88 81 79
86 73 72 82 72 78 90 95 92 98 99 97 97 87 91 80 81 91 91 96 94 91 82 84 89 84 83 90 81 94 89 83 88 95 83 80 45 37 47 66 86 99 82 84 80
88 81 82 68 64 90 97 97 97 98 98 95 98 90 88 98 98 97 86 91 95 92 92 94 91 92 85 89 91 91 90 81 88 84 96 73 64 39 60 89 97 97 94 98 93
83 89 88 50 76 80 80 97 98 98 94 95 92 99 96 88 79 85 88 87 94 98 98 98 91 92 86 67 74 80 76 86 86 86 88 89 72 65 86 99 98 87 100 100 100
99 84 93 78 88 83 86 96 96 97 92 95 98 90 94 86 81 85 88 76 76 79 95 100 95 93 82 80 76 72 64 71 73 84 83 84 66 82 88 89 85 93 100 100 100

GFSSW_700_rhum_063.txt.gz
RH
6 6 7 7 9 11 13 11 7 6 6 3 13 76 98 91 83 30 19 23 28 31 26 17 18 31 34 31 34 39 49 43 34 28 23 23 26 26 27 38 36 37 40 36 32
6 6 6 7 8 10 12 14 12 8 7 6 3 32 80 99 80 64 27 27 28 37 33 22 17 29 39 36 44 40 39 33 23 23 24 25 24 27 32 41 36 34 40 38 35
5 6 7 9 10 12 13 13 13 13 10 8 4 16 79 99 96 42 66 25 31 32 42 30 22 28 45 41 44 37 39 32 23 21 24 22 21 24 35 40 41 40 39 39 37
6 8 11 13 14 15 18 20 16 15 15 12 8 3 51 95 98 65 57 30 32 35 49 39 58 35 42 51 48 37 37 35 22 22 24 21 22 22 22 30 38 42 41 40 39
10 13 13 15 24 51 72 70 60 51 38 23 12 5 26 100 63 92 44 36 32 38 41 44 67 42 37 45 51 48 48 35 23 19 22 24 23 25 19 20 39 40 43 40 40
12 12 33 74 95 92 87 71 55 56 58 72 57 17 29 93 60 100 93 72 49 37 71 50 48 64 43 43 46 55 48 44 27 23 26 30 28 33 14 16 42 38 44 44 43
13 32 86 90 90 81 77 58 58 64 63 54 92 60 35 92 77 75 100 74 84 56 68 51 53 83 63 55 47 59 62 48 40 36 34 31 28 18 14 17 31 44 44 47 46
29 87 89 75 72 69 56 58 66 72 72 63 64 74 39 82 76 98 100 65 77 97 82 60 68 85 78 92 83 80 76 86 37 39 39 38 20 27 27 22 17 28 44 49 46
55 52 55 56 61 59 61 66 72 70 66 85 77 84 73 66 76 100 96 60 79 97 99 89 90 95 97 100 99 98 86 90 68 41 40 44 49 31 31 22 21 21 30 43 46
68 49 56 50 55 81 74 71 77 88 78 78 89 98 73 50 88 99 82 57 66 98 98 99 100 100 100 99 97 96 98 84 58 50 59 65 70 42 42 33 32 20 17 21 34
76 54 48 60 68 79 74 67 67 83 78 94 72 63 48 91 75 99 96 76 72 92 100 91 100 96 99 100 90 85 90 84 69 71 70 68 66 40 34 29 30 23 17 16 15
74 58 46 71 59 58 63 74 100 99 81 86 84 55 98 98 100 100 97 100 91 93 99 100 99 100 98 99 99 98 85 76 73 72 74 67 63 40 34 33 29 25 23 20 21
66 38 40 54 44 58 60 76 99 97 97 73 64 60 100 98 99 91 83 100 97 95 96 99 98 99 99 99 100 100 88 79 75 75 73 67 60 39 29 34 34 29 26 26 24
42 35 37 36 43 59 62 71 87 96 85 79 97 86 96 98 95 99 90 96 100 96 100 97 98 97 96 99 98 98 97 88 86 81 77 62 63 40 32 29 25 22 22 24 18
51 34 29 32 37 37 54 62 78 88 98 99 68 87 96 99 96 98 85 96 99 87 97 95 98 99 100 99 99 93 91 87 83 78 73 63 57 38 24 32 22 30 32 24 23
24 25 37 67 82 55 52 53 76 83 90 97 78 92 98 98 99 95 100 100 98 94 99 91 91 98 98 100 99 88 85 84 80 73 75 54 50 22 32 37 37 35 33 31 31
35 74 90 76 84 90 45 69 83 92 84 95 69 75 96 98 98 85 99 90 98 98 99 100 100 98 94 98 100 92 84 84 73 83 74 66 67 23 39 43 41 39 38 36 34
79 92 81 57 83 82 74 74 90 96 96 89 95 96 98 98 99 100 93 98 94 90 94 90 98 96 100 93 86 96 87 58 62 95 88 76 74 44 37 40 40 40 40 36 34
64 99 100 95 71 72 91 71 97 97 96 98 96 97 99 99 98 99 88 99 98 86 74 87 95 97 96 97 86 93 90 76 80 94 96 68 57 54 43 40 40 40 40 37 36
60 64 74 78 81 73 82 87 91 95 96 97 98 97 99 100 97 98 92 88 92 86 78 77 92 98 92 98 92 76 75 76 72 89 86 68 57 42 48 45 47 45 42 40 38
61 54 60 75 76 69 81 75 89 96 98 98 86 97 98 98 91 94 90 88 82 75 75 71 75 100 96 98 92 89 88 79 73 72 90 97 49 41 42 43 46 46 41 37 37
49 57 66 62 80 89 99 97 97 98 100 100 99 83 89 83 94 84 74 84 83 77 76 75 79 99 94 89 89 92 74 76 70 89 97 90 52 41 45 42 42 40 42 43 42
55 55 66 73 97 93 95 96 100 100 92 84 98 82 82 87 85 83 71 81 87 85 78 77 83 97 97 93 92 93 93 92 83 85 87 84 49 39 43 44 46 49 46 45 53
44 49 68 76 79 83 95 100 98 99 100 88 89 79 74 74 70 75 73 78 86 86 90 83 74 67 75 78 82 92 89 89 96 94 84 69 40 42 48 48 46 45 56 72 84
58 45 66 70 67 81 96 98 97 98 96 92 92 80 73 77 73 76 77 76 78 80 89 86 77 73 78 88 89 90 84 82 86 80 82 50 52 45 66 72 73 77 86 93 99
68 57 68 72 68 89 98 100 100 100 91 85 94 88 79 73 71 76 77 72 88 92 84 87 78 80 74 73 83 88 85 85 84 86 83 69 61 70 82 83 80 83 90 98 99
66 56 79 75 83 89 99 98 96 86 97 92 86 89 95 85 80 84 86 83 80 81 90 82 82 85 75 83 79 67 64 68 61 59 62 71 75 89 85 83 85 93 98 99 99

GFSSW_700_rhum_066.txt.gz
RH
6 6 6 6 6 6 7 8 9 11 12 12 7 4 8 49 78 70 30 36 28 28 30 29 18 55 73 38 40 52 52 46 38 35 33 30 30 28 27 26 33 39 39 39 35
12 10 8 7 8 9 10 11 12 13 13 13 12 8 4 22 38 15 24 69 32 31 28 32 22 46 74 50 52 53 46 41 36 36 33 31 32 25 26 25 29 39 38 40 38
13 8 8 10 12 13 14 14 15 16 15 16 15 13 9 6 30 9 48 73 43 34 29 38 33 60 74 55 55 46 42 38 38 31 33 31 32 28 28 27 31 39 35 37 39
7 10 12 14 14 15 28 47 61 54 36 34 30 19 17 6 79 45 33 65 69 37 32 45 54 56 76 81 55 43 44 52 37 33 32 30 29 26 23 28 40 41 38 37 39
11 13 13 13 19 55 98 96 81 79 62 51 48 84 62 18 10 92 69 62 69 42 30 40 71 38 51 71 69 60 50 48 38 32 34 32 28 29 21 20 28 38 42 42 41
14 13 15 32 71 63 70 78 67 51 44 49 52 61 95 64 18 90 92 92 69 44 32 39 52 84 62 54 66 64 52 50 35 27 31 30 28 26 15 16 19 28 42 44 49
15 14 20 60 75 49 53 53 40 45 49 57 64 75 84 78 28 56 98 80 100 54 35 38 56 96 82 64 54 69 67 59 37 28 31 31 27 19 14 15 14 19 38 56 59
23 32 63 59 67 70 58 37 46 54 55 62 82 93 78 49 58 64 74 97 96 99 48 52 65 78 81 76 64 66 76 81 36 33 39 43 27 25 17 15 12 15 19 50 58
68 90 100 64 70 46 41 45 54 59 63 80 80 97 82 65 59 93 78 94 99 91 67 79 87 79 93 87 96 87 79 73 53 34 37 38 40 28 33 30 17 13 16 29 50
95 97 100 87 59 53 36 40 52 55 76 76 87 92 66 62 52 81 95 89 92 93 92 90 99 97 100 99 90 95 95 77 45 37 39 35 38 30 35 30 23 20 15 15 26
100 100 99 72 76 70 41 43 54 58 80 94 98 88 74 82 71 68 100 99 77 94 99 98 98 87 87 85 97 83 80 73 40 44 59 62 69 42 35 27 25 21 14 10 12
97 99 92 92 74 47 46 53 69 91 74 74 82 75 69 98 90 79 99 98 79 94 99 99 99 82 100 87 100 92 87 82 77 81 82 72 66 46 36 29 27 27 22 18 16
100 100 79 43 38 46 61 56 75 96 97 73 80 79 79 98 98 98 98 99 92 88 99 100 96 99 99 99 100 99 92 85 80 77 74 69 61 44 32 31 27 27 25 23 18
53 31 29 31 50 49 70 54 82 82 99 90 94 89 84 95 95 85 98 99 97 92 99 99 90 99 99 99 99 99 96 93 82 81 78 69 66 38 38 39 33 27 27 23 23
36 53 52 99 98 99 96 58 64 95 96 98 74 98 85 92 88 100 96 98 98 100 92 92 97 99 99 98 99 99 97 99 93 87 80 71 66 45 29 28 26 28 26 30 26
59 52 86 82 94 92 69 49 76 87 92 92 85 93 96 95 99 90 97 98 99 98 98 92 99 100 97 94 99 98 93 97 85 78 79 63 58 38 35 39 38 37 36 35 32
43 61 72 63 82 76 64 84 86 95 96 93 77 84 96 98 99 88 98 99 97 98 98 99 98 98 99 99 98 96 86 82 79 86 79 67 64 39 45 46 44 41 38 37 36
50 67 77 77 62 65 80 87 91 95 96 92 82 82 98 97 98 97 98 98 97 87 90 93 100 94 100 96 91 97 84 62 66 86 84 78 72 48 44 41 45 43 43 40 36
44 57 66 64 52 59 60 79 97 97 97 97 87 97 98 96 97 98 79 94 99 85 72 89 99 100 100 99 98 97 93 78 71 88 93 70 62 65 56 49 47 46 45 42 38
50 53 48 49 56 61 71 80 96 99 100 98 98 91 98 96 96 98 94 98 97 86 73 79 94 99 99 98 98 86 84 80 61 85 77 65 55 51 64 59 56 56 52 46 43
44 52 66 77 77 90 96 96 98 100 97 98 97 97 93 89 92 91 97 95 97 87 77 68 72 99 98 96 94 89 86 70 62 68 85 92 46 44 46 57 55 49 46 45 41
46 60 81 86 99 94 100 100 97 99 100 100 100 100 87 96 96 82 92 86 79 78 67 68 78 98 92 95 89 90 75 66 62 88 87 86 49 42 47 49 49 48 46 45 41
50 71 82 88 98 97 93 100 100 100 85 91 95 91 90 87 86 76 65 86 84 72 75 68 82 95 96 89 97 99 93 84 81 75 84 81 47 41 47 49 50 51 49 44 41
46 61 81 75 99 100 98 95 97 99 83 70 72 78 82 72 63 78 65 77 80 82 76 73 70 69 75 72 80 91 84 89 88 86 78 62 42 46 45 47 51 50 47 48 49
42 66 78 92 99 100 99 100 94 95 94 84 80 71 70 70 77 78 72 64 87 89 87 81 75 76 80 87 87 87 80 84 80 79 73 54 50 44 64 74 73 65 66 72 82
51 65 96 100 100 97 98 96 94 96 86 88 83 80 75 71 70 66 66 67 73 85 88 88 78 75 75 77 79 84 85 84 84 82 78 70 47 68 86 89 79 78 83 94 99
53 66 86 95 100 96 99 96 100 98 91 88 89 86 88 83 74 82 81 77 78 72 84 89 86 77 75 79 76 66 61 67 65 60 61 68 70 83 88 88 85 90 92 99 99

GFSSW_700_rhum_069.txt.gz
RH
22 19 19 16 12 10 10 10 11 12 12 11 10 10 13 8 6 6 14 15 53 38 28 27 26 21 60 47 50 58 57 50 34 28 27 22 24 24 25 27 25 24 38 35 40
14 10 8 9 10 12 14 16 16 15 15 15 14 14 12 13 11 8 10 13 61 56 29 30 29 25 76 72 56 65 60 47 41 38 35 32 31 30 29 27 27 25 36 38 38
10 8 10 12 14 15 17 21 38 37 29 23 26 21 14 15 14 13 11 16 52 86 38 31 40 27 95 90 77 53 46 47 47 44 41 42 38 37 31 25 26 25 32 39 38
10 11 23 16 15 16 16 39 50 75 60 61 51 50 49 30 24 24 28 19 59 92 73 34 46 42 78 85 75 53 46 56 51 44 42 50 39 41 34 26 28 31 32 38 39
11 15 16 14 14 20 51 71 43 57 56 42 30 30 36 62 11 38 64 43 32 71 78 36 61 49 68 91 99 79 63 65 46 50 45 43 36 44 30 28 31 40 42 38 36
21 23 22 20 26 31 53 63 54 53 36 32 35 53 70 62 33 62 87 100 94 74 88 45 43 54 78 99 97 99 90 85 64 50 44 38 35 35 24 26 25 28 41 40 37
48 35 32 40 47 69 59 59 38 32 33 39 42 66 81 43 49 56 100 98 100 98 91 56 54 78 78 96 98 100 93 78 77 44 39 42 35 24 29 24 21 22 27 37 40
37 31 56 84 98 86 57 37 31 40 37 45 52 73 75 46 64 61 62 98 99 99 96 64 60 99 95 92 88 83 100 90 55 46 44 40 28 26 27 22 17 17 18 29 36
13 36 97 95 95 93 51 65 34 36 45 51 52 78 69 54 51 54 55 98 98 95 92 52 77 87 99 98 90 97 91 93 71 40 45 41 41 31 29 23 16 12 14 18 38
86 88 94 96 96 100 93 83 43 43 47 56 70 77 68 62 64 55 45 93 99 98 99 67 87 98 99 99 94 76 98 81 64 52 50 44 39 39 35 23 22 19 12 12 15
98 100 95 98 99 90 94 56 45 54 51 61 75 78 90 86 74 65 52 93 98 98 99 87 96 95 66 92 88 72 85 72 37 45 49 39 38 35 32 28 23 20 16 15 13
62 66 45 46 40 86 70 80 69 67 54 55 77 81 77 92 70 79 86 99 96 95 99 96 94 98 98 87 95 97 80 77 63 58 57 65 67 45 36 23 17 17 15 13 14
42 64 83 96 94 96 93 73 80 76 91 69 85 81 94 80 88 90 97 98 90 99 98 96 89 99 94 87 98 99 75 77 74 78 84 80 68 38 34 32 25 21 21 19 18
59 50 94 92 97 100 89 100 90 86 97 96 96 96 88 71 90 76 97 98 96 98 98 99 98 99 88 90 95 99 89 84 90 80 75 70 62 43 44 40 34 29 25 23 22
46 55 59 78 74 89 86 69 59 84 96 95 93 93 81 80 96 74 92 99 98 84 97 99 98 96 96 98 97 98 100 95 89 82 80 76 68 52 47 33 28 32 31 28 28
37 42 50 48 44 54 56 74 88 96 95 95 88 78 92 97 97 95 95 98 97 89 98 98 98 98 99 91 99 99 100 97 99 91 80 71 62 47 44 39 36 33 36 32 33
31 42 52 39 51 62 73 85 91 96 96 95 90 86 97 96 89 97 98 99 95 96 97 99 98 98 98 98 99 99 98 97 96 88 77 64 69 50 49 48 43 41 40 39 37
31 43 50 49 56 73 76 91 86 89 100 95 87 91 96 99 99 96 98 96 98 94 97 96 98 98 99 84 94 98 94 68 79 84 71 74 66 48 46 47 48 46 42 39 38
33 40 44 49 67 77 83 94 97 100 100 96 98 100 99 100 85 98 97 98 95 87 72 90 98 100 99 98 97 98 94 66 61 89 84 69 61 64 56 52 56 52 48 44 41
33 45 69 78 89 87 89 100 100 97 92 97 98 92 99 98 96 96 95 96 91 76 70 82 96 100 99 100 97 95 85 78 62 77 64 63 57 59 66 70 68 62 54 48 44
40 63 87 95 94 85 96 99 100 96 79 98 94 100 90 90 89 88 91 96 85 74 69 67 74 100 98 96 88 84 88 69 64 60 66 63 42 47 56 59 60 57 53 50 48
51 76 92 91 91 97 99 96 98 100 99 96 95 72 79 87 85 81 89 89 88 82 71 62 86 99 98 96 85 86 80 67 57 77 78 76 46 46 63 61 59 56 52 48 45
52 82 90 79 87 94 100 100 99 96 99 93 84 84 87 81 78 78 75 73 78 74 66 63 75 93 95 86 88 94 86 78 70 68 70 69 45 47 52 56 62 58 54 50 45
43 57 87 100 100 86 85 94 98 96 87 89 89 78 80 69 71 69 75 88 83 75 68 62 67 66 72 67 75 86 78 81 78 73 70 51 47 48 53 56 57 50 51 47 45
39 73 98 96 94 97 94 90 92 92 86 81 86 81 75 71 64 71 65 83 87 79 73 67 69 71 75 79 83 81 75 79 82 70 60 52 47 50 59 64 64 56 56 56 69
46 65 100 100 97 92 100 100 91 93 84 80 75 75 74 69 72 78 72 65 80 82 82 79 75 74 74 74 76 76 84 80 78 77 69 59 50 71 81 84 80 76 78 86 88
56 52 89 100 100 99 98 98 91 100 91 84 81 80 75 77 76 82 77 71 64 60 80 84 83 78 73 76 75 67 61 73 71 68 68 70 74 82 84 91 86 89 93 95 97